Flag for Germany Weather past 2 weeks in Garbsen, Lower Saxony, Germany

Now
48 °F

Scattered clouds.


Feels Like: 43 °F
Forecast: 38 / 45 °F
Wind: 14 mph from Southwest

Location: Hannover

Current Time: Mar 1, 2015 at 12:46:26 PM

Latest Report: Mar 1, 2015 at 12:20 PM


Visibility: N/A

Pressure: 29.53 "Hg

Humidity: 82%

Dew point: 43 °F

Location of GarbsenLocation

Historic Weather in Garbsen — Graph

°F

Garbsen temperature yesterday

Maximum temperature yesterday: 45 °F (at 1:50 PM)
Minimum temperature yesterday: 28 °F (at 5:20 AM)
Average temperature yesterday: 38 °F

Past Weeks' High & Low Weather Summary

 TemperatureHumidityPressure
High52 °F (Feb 14, 3:50 PM)100% (Feb 15, 3:20 AM)30.72 "Hg (Feb 15, 3:20 AM)
Low27 °F (Feb 15, 4:50 AM)46% (Feb 28, 3:50 PM)29.30 "Hg (Feb 21, 9:20 AM)
Average38 °F80%29.96 "Hg
* Reported Feb 14 11:20 AM — Mar 1 11:20 AM, Garbsen, Weather by CustomWeather, © 2015

Note: Actual official high and low records may vary slightly from our data, if they occured in-between our weather recording intervals... More about our weather records

Advertising

Garbsen weather history for previous 24 hours

 ConditionsComfort  
Time TempWeatherWind HumidityBarometerVisibility
11:20 AM
Sun, Mar 1
45 °FLight rain. Partly sunny.14 mph87%29.53 "HgN/A
10:50 AM43 °FLight rain. Partly sunny.14 mph87%29.53 "HgN/A
10:20 AM41 °FDrizzle. Partly sunny.16 mph87%29.53 "HgN/A
9:50 AM41 °FBroken clouds.16 mph87%29.53 "HgN/A
9:20 AM41 °FBroken clouds.15 mph87%29.53 "HgN/A
8:50 AM39 °FBroken clouds.18 mph87%29.53 "HgN/A
8:20 AM39 °FDrizzle. Broken clouds.21 mph87%29.53 "HgN/A
7:50 AM39 °FDrizzle. Broken clouds.20 mph87%29.53 "Hg5 mi
7:20 AM39 °FLight rain. Partly sunny.16 mph87%29.53 "HgN/A
6:50 AM39 °FLight rain. Partly cloudy.18 mph81%29.53 "HgN/A
6:20 AM39 °FRain. Partly cloudy.16 mph81%29.56 "HgN/A
5:50 AM41 °FLight rain. Passing clouds.15 mph70%29.56 "HgN/A
5:20 AM41 °FLight rain. Passing clouds.16 mph66%29.59 "HgN/A
4:50 AM41 °FPartly cloudy.14 mph66%29.59 "HgN/A
4:20 AM41 °FPassing clouds.12 mph61%29.62 "HgN/A
3:50 AM41 °FPassing clouds.18 mph61%29.62 "HgN/A
3:20 AM41 °FPartly cloudy.13 mph61%29.65 "HgN/A
2:50 AM41 °FPassing clouds.12 mph61%29.68 "HgN/A
2:20 AM41 °FClear.12 mph61%29.71 "Hg10 mi
1:50 AM39 °FClear.13 mph65%29.74 "Hg10 mi
1:20 AM39 °FClear.14 mph65%29.74 "Hg10 mi
12:50 AM41 °FClear.20 mph57%29.77 "Hg10 mi
12:20 AM41 °FClear.16 mph57%29.80 "Hg10 mi
11:50 PM
Sat, Feb 28
39 °FClear.15 mph61%29.80 "Hg10 mi
11:20 PM39 °FPassing clouds.8 mph61%29.83 "HgN/A
10:50 PM39 °FClear.10 mph61%29.83 "Hg10 mi
10:20 PM39 °FClear.9 mph65%29.86 "Hg10 mi
9:50 PM37 °FClear.9 mph70%29.89 "Hg10 mi
9:20 PM37 °FClear.9 mph70%29.92 "Hg10 mi
8:50 PM37 °FClear.14 mph70%29.92 "Hg10 mi
8:20 PM39 °FClear.14 mph65%29.92 "Hg10 mi
7:50 PM39 °FClear.14 mph65%29.92 "Hg10 mi
7:20 PM39 °FClear.15 mph70%29.95 "Hg10 mi
6:50 PM41 °FClear.14 mph61%29.95 "Hg10 mi
6:20 PM41 °FClear.10 mph61%29.95 "Hg10 mi
5:50 PM43 °FSunny.13 mph57%29.95 "Hg10 mi
5:20 PM45 °FSunny.13 mph49%29.95 "Hg10 mi
4:50 PM45 °FSunny.14 mph46%29.98 "Hg10 mi
4:20 PM45 °FSunny.12 mph46%30.01 "Hg10 mi
3:50 PM45 °FSunny.10 mph46%30.01 "Hg10 mi
3:20 PM45 °FScattered clouds.10 mph49%30.01 "HgN/A
2:50 PM45 °FPartly sunny.13 mph49%30.04 "HgN/A
2:20 PM45 °FPartly sunny.10 mph49%30.04 "HgN/A
1:50 PM45 °FPartly sunny.12 mph57%30.07 "HgN/A
1:20 PM43 °FPartly sunny.10 mph61%30.07 "HgN/A
12:50 PM41 °FScattered clouds.10 mph66%30.07 "HgN/A
12:20 PM41 °FPassing clouds.10 mph70%30.09 "HgN/A
Weather by CustomWeather, © 2015

See weather overviewHow to use our weather pages